Weather History for PHSF - March, 2014

Change the Weather History Date:

Sunday, March 30, 2014

  Actual Average Record
Temperature  
Mean Temperature 54 °F -  
Max Temperature 62 °F 65 °F 73 °F (2002)
Min Temperature 46 °F 46 °F 41 °F (2001)
Degree Days  
Heating Degree Days 11    
Growing Degree Days 4 (Base 50)    
Moisture  
Dew Point 50 °F    
Average Humidity 87    
Maximum Humidity 100    
Minimum Humidity 70    
Precipitation  
Precipitation 0.19 in - - ()
Sea Level Pressure  
Sea Level Pressure 30.14 in    
Wind  
Wind Speed 5 mph (South)    
Max Wind Speed 12 mph    
Max Gust Speed 18 mph    
Visibility 9 miles    
Events Rain , Thunderstorm    
Averages and records for this station are not official NWS values.
T = Trace of Precipitation, MM = Missing Value Source: NWS Daily Summary

Daily Weather History Graph

Daily Weather History Graph

Search for Another Location

Airport or City:

Trip Planner

Search our weather history database for the weather conditions in past years. The results will help you decide how hot, cold, wet, or windy it might be!

Date:

Astronomy

Mar. 30, 2014 Rise Set
Actual Time 6:17 AM HST 6:35 PM HST
Civil Twilight 5:55 AM HST 6:58 PM HST
Nautical Twilight 5:29 AM HST 7:23 PM HST
Astronomical Twilight 5:03 AM HST 7:49 PM HST
Moon 6:11 AM HST (3/30) 6:54 PM HST (3/30)
Length of Visible Light 13h 02m
Length of Day
12h 18m
New Moon, 0% of the Moon is Illuminated
Mar 30
New Moon
Apr 6
First Quarter
Apr 14
Full
Apr 21
Last Quarter
Apr 28
New

Hourly Weather History & Observations

Time (HST) Temp. Dew Point Humidity Pressure Visibility Wind Dir Wind Speed Gust Speed Precip Events Conditions
12:05 AM 50.0 °F 48.2 °F 94% 30.30 in 10.0 mi WSW 4.6 mph - N/A   Mostly Cloudy
12:14 AM 50.0 °F 46.4 °F 87% 30.31 in 9.0 mi NE 5.8 mph - N/A Rain Light Rain Showers
12:56 AM 48.9 °F 47.7 °F 95% 30.00 in 3.0 mi ESE 5.8 mph - 0.07 in Rain Rain Showers
1:21 AM 50.0 °F 46.4 °F 87% 30.27 in 4.0 mi SE 2.3 mph - N/A   Mostly Cloudy
1:34 AM 50.0 °F 46.4 °F 87% 30.27 in 10.0 mi SE 4.6 mph - N/A   Mostly Cloudy
1:35 AM 50.0 °F 46.4 °F 87% 30.27 in 9.0 mi SE 4.6 mph - N/A Rain Light Rain Showers
1:56 AM 49.3 °F 46.9 °F 92% 29.99 in 5.0 mi ESE 4.6 mph - 0.03 in Rain Light Rain Showers
2:56 AM 49.5 °F 47.3 °F 92% 29.96 in 5.0 mi NNE 4.6 mph - 0.02 in Rain Light Rain
3:12 AM 50.0 °F 46.4 °F 87% 30.23 in 8.0 mi South 4.6 mph - N/A   Mostly Cloudy
3:56 AM 48.7 °F 45.5 °F 89% 29.97 in 12.0 mi SE 3.5 mph - N/A   Scattered Clouds
4:56 AM 48.4 °F 45.7 °F 90% 29.98 in 10.0 mi SSE 4.6 mph - N/A   Mostly Cloudy
5:56 AM 47.8 °F 45.1 °F 90% 29.99 in 11.0 mi ESE 6.9 mph - N/A   Mostly Cloudy
6:56 AM 47.8 °F 45.0 °F 90% 30.00 in 10.0 mi ESE 5.8 mph - N/A   Mostly Cloudy
7:56 AM 53.8 °F 48.6 °F 82% 30.01 in 12.0 mi SE 9.2 mph 16.1 mph N/A   Mostly Cloudy
8:56 AM 56.5 °F 50.2 °F 79% 30.01 in 12.0 mi SSE 11.5 mph - N/A   Partly Cloudy
9:56 AM 59.9 °F 52.7 °F 77% 29.98 in 12.0 mi South 8.1 mph - N/A   Clear
10:56 AM 62.1 °F 52.3 °F 70% 29.97 in 12.0 mi South 9.2 mph 16.1 mph N/A   Partly Cloudy
11:51 AM 57.2 °F 53.6 °F 88% 30.29 in 10.0 mi WSW 6.9 mph - N/A   Mostly Cloudy
11:56 AM 57.4 °F 54.0 °F 88% 29.99 in 9.0 mi WSW 6.9 mph 15.0 mph N/A   Mostly Cloudy
11:57 AM 57.2 °F 53.6 °F 88% 30.29 in 8.0 mi WSW 6.9 mph 15.0 mph N/A Rain Light Rain Showers
12:07 PM 55.4 °F 53.6 °F 94% 30.29 in 2.0 mi WSW 6.9 mph - N/A Rain Heavy Rain Showers
12:12 PM 55.4 °F 53.6 °F 94% 30.30 in 1.8 mi WSW 6.9 mph 15.0 mph N/A Rain Heavy Rain Showers
12:17 PM 55.4 °F 53.6 °F 94% 30.30 in 2.0 mi WSW 6.9 mph 15.0 mph N/A Rain Heavy Rain Showers
12:22 PM 55.4 °F 53.6 °F 94% 30.30 in 4.0 mi WSW 8.1 mph - N/A Rain Heavy Rain Showers
12:33 PM 53.6 °F 53.6 °F 100% 30.30 in 3.0 mi WSW 5.8 mph - N/A Rain , Thunderstorm Thunderstorms and Rain
12:48 PM 55.4 °F 53.6 °F 94% 30.29 in 4.0 mi West 5.8 mph - N/A Rain Light Rain Showers
1:16 PM 55.4 °F 53.6 °F 94% 30.28 in 7.0 mi Calm Calm - N/A   Scattered Clouds
1:56 PM 59.0 °F 55.0 °F 87% 29.95 in 11.0 mi WSW 3.5 mph - N/A   Partly Cloudy
2:41 PM 57.2 °F 53.6 °F 88% 30.24 in 12.0 mi SSW 5.8 mph 18.4 mph N/A   Mostly Cloudy
2:47 PM 57.2 °F 51.8 °F 82% 30.24 in 12.0 mi South 5.8 mph - N/A Rain Light Rain Showers
2:52 PM 55.4 °F 51.8 °F 88% 30.24 in 11.0 mi SSE 8.1 mph - N/A Rain Light Rain Showers
2:56 PM 56.1 °F 50.4 °F 81% 29.96 in 10.0 mi SSE 5.8 mph - N/A Rain Light Rain Showers
3:08 PM 57.2 °F 50.0 °F 77% 30.24 in 11.0 mi SSE 6.9 mph - N/A   Mostly Cloudy
3:29 PM 57.2 °F 51.8 °F 82% 30.24 in 10.0 mi SW 3.5 mph - N/A Rain Light Rain Showers
3:53 PM 55.4 °F 51.8 °F 88% 30.25 in 9.0 mi SW 2.3 mph - N/A   Mostly Cloudy
3:54 PM 55.4 °F 51.8 °F 88% 30.25 in 9.0 mi SW 2.3 mph - N/A Rain Light Rain Showers
3:56 PM 55.4 °F 50.9 °F 85% 29.96 in 9.0 mi SSW 4.6 mph - 0.01 in Rain Light Rain Showers
4:56 PM 54.1 °F 48.9 °F 82% 29.96 in 6.0 mi SE 5.8 mph - 0.04 in Rain Rain Showers
5:56 PM 55.2 °F 48.9 °F 79% 29.96 in 9.0 mi SSE 2.3 mph - 0.02 in Rain Light Rain Showers
6:02 PM 55.4 °F 50.0 °F 82% 30.25 in 10.0 mi South 2.3 mph - N/A   Mostly Cloudy
6:23 PM 53.6 °F 48.2 °F 82% 30.26 in 10.0 mi ESE 6.9 mph - N/A Rain Light Rain Showers
6:24 PM 53.6 °F 50.0 °F 88% 30.26 in 10.0 mi ESE 6.9 mph - N/A   Mostly Cloudy
6:56 PM 52.0 °F 48.0 °F 86% 29.99 in 11.0 mi SE 6.9 mph - N/A   Mostly Cloudy
7:56 PM 50.7 °F 45.9 °F 83% 30.00 in 12.0 mi SE 5.8 mph - N/A   Mostly Cloudy
8:56 PM 48.7 °F 44.4 °F 85% 30.02 in 12.0 mi ESE 3.5 mph - N/A   Clear
9:56 PM 47.5 °F 43.9 °F 87% 30.03 in 11.0 mi ESE 4.6 mph - N/A   Clear
10:56 PM 46.6 °F 42.4 °F 85% 30.03 in 10.0 mi SE 4.6 mph - N/A   Clear
11:56 PM 46.6 °F 43.7 °F 90% 30.03 in 11.0 mi ESE 5.8 mph - N/A   Clear